Julian (221, 222, JU1, MAN1, OK1, SL1) Station Data

Red Flag Warning: No
Fire Weather Zone: 258
SDGE Region: Ramona
Lat/Lon: 33.076/-116.591

Observations

Time Wind Speed/Gust Temp(F) RH Fuel Moist Fuel Temp(F) Dewpt(F) Tmax(F) Tmin(F) Accum Precip 10-min Precip SL Press(mb)
4/29 11:50pm 233 1 G 2 48° 30% - - 18° 65.3° 46° - - -
4/29 11:40pm 228 1 G 2 47° 32% - - 19° 65.3° 46° - - -
4/29 11:30pm 237 2 G 3 47° 33% - - 19° 65.3° 46° - - -
4/29 11:20pm 238 1 G 3 48° 31% - - 19° 65.3° 46.4° - - -
4/29 11:10pm 241 1 G 2 48° 31% - - 19° 65.3° 46.4° - - -
4/29 11:00pm 238 2 G 3 48° 34% - - 21° 65.3° 46.8° - - -
4/29 10:50pm 244 2 G 3 48° 34% - - 21° 65.3° 47.3° - - -
4/29 10:40pm 236 2 G 3 50° 31% - - 21° 65.3° 47.7° - - -
4/29 10:30pm 240 2 G 3 51° 30% - - 20° 65.3° 47.7° - - -
4/29 10:20pm 213 1 G 2 51° 31% - - 21° 65.3° 47.7° - - -
4/29 10:10pm 207 2 G 3 51° 30% - - 21° 65.3° 47.7° - - -
4/29 10:00pm 222 2 G 3 51° 31% - - 21° 65.3° 47.7° - - -
4/29 9:50pm 213 1 G 2 50° 33% - - 22° 65.3° 47.7° - - -
4/29 9:40pm 230 2 G 3 51° 31% - - 22° 65.3° 47.7° - - -
4/29 9:30pm 224 2 G 3 51° 32% - - 22° 65.3° 47.7° - - -
4/29 9:20pm 223 2 G 3 50° 34% - - 22° 65.3° 47.7° - - -
4/29 9:10pm 226 2 G 3 50° 33% - - 23° 65.3° 47.7° - - -
4/29 9:00pm 233 2 G 3 50° 35% - - 23° 65.3° 47.7° - - -
4/29 8:50pm 236 1 G 2 50° 37% - - 25° 65.3° 47.7° - - -
4/29 8:40pm 229 2 G 4 51° 34% - - 24° 65.3° 47.7° - - -
4/29 8:30pm 234 2 G 3 52° 34% - - 24° 65.3° 47.7° - - -
4/29 8:20pm 234 2 G 4 52° 34% - - 24° 65.3° 47.7° - - -
4/29 8:10pm 233 2 G 4 52° 34% - - 25° 65.3° 47.7° - - -
4/29 8:00pm 233 2 G 4 54° 33% - - 25° 65.3° 47.7° - - -
4/29 7:50pm 239 2 G 4 55° 31% - - 25° 65.3° 47.7° - - -
4/29 7:40pm 242 2 G 4 56° 28% - - 24° 65.3° 47.7° - - -
4/29 7:30pm 238 2 G 6 58° 26% - - 23° 65.3° 47.7° - - -
4/29 7:20pm 256 4 G 8 59° 24% - - 22° 65.3° 47.7° - - -
4/29 7:10pm 245 3 G 8 61° 23% - - 22° 65.3° 47.7° - - -
4/29 7:00pm 259 4 G 7 62° 21% - - 22° 65.3° 47.7° - - -
4/29 6:50pm 241 2 G 6 64° 14% - - 14° 65.3° 47.7° - - -
4/29 6:40pm 155 2 G 5 63° 11% - - 65.3° 47.7° - - -
4/29 6:30pm 121 4 G 8 63° 11% - - 65.3° 47.7° - - -
4/29 6:20pm 104 6 G 10 64° 11% - - 65.3° 47.7° - - -
4/29 6:10pm 95 6 G 9 64° 11% - - 65.3° 47.7° - - -
4/29 6:00pm 109 7 G 11 64° 11% - - 65.3° 47.7° - - -
4/29 5:50pm 91 6 G 11 65° 11% - - 65.3° 47.7° - - -
4/29 5:40pm 79 7 G 11 65° 11% - - 65.3° 47.7° - - -
4/29 5:30pm 85 7 G 10 65° 11% - - 65.2° 47.7° - - -
4/29 5:20pm 109 7 G 15 64° 11% - - 65.2° 47.7° - - -
4/29 5:10pm 105 7 G 11 64° 10% - - 65.2° 47.7° - - -
4/29 5:00pm 84 7 G 11 65° 10% - - 65.2° 47.7° - - -
4/29 4:50pm 69 8 G 14 64° 10% - - 65.2° 47.7° - - -
4/29 4:40pm 89 6 G 12 64° 11% - - 65.2° 47.7° - - -
4/29 4:30pm 110 7 G 16 64° 11% - - 65.2° 47.7° - - -
4/29 4:20pm 76 7 G 13 64° 10% - - 65.2° 47.7° - - -
4/29 4:10pm 114 6 G 12 64° 11% - - 65.2° 47.7° - - -
4/29 4:00pm 100 6 G 12 63° 11% - - 65.2° 47.7° - - -
4/29 3:50pm 110 7 G 16 63° 11% - - 64.6° 47.7° - - -
4/29 3:40pm 116 7 G 14 63° 11% - - 64.6° 47.7° - - -
4/29 3:30pm 116 9 G 16 63° 12% - - 64.6° 47.7° - - -
4/29 3:20pm 100 7 G 12 64° 11% - - 64.6° 47.7° - - -
4/29 3:10pm 89 8 G 14 63° 10% - - 64.4° 47.7° - - -
4/29 3:00pm 77 7 G 14 63° 10% - - 64.4° 47.7° - - -
4/29 2:50pm 87 8 G 15 64° 11% - - 64.4° 47.7° - - -
4/29 2:40pm 82 8 G 18 63° 11% - - 63.7° 47.7° - - -
4/29 2:30pm 93 6 G 14 62° 11% - - 62.9° 47.7° - - -
4/29 2:20pm 82 7 G 13 62° 11% - - 62.9° 47.7° - - -
4/29 2:10pm 91 9 G 16 62° 12% - - 62.9° 47.7° - - -
4/29 2:00pm 112 8 G 17 61° 12% - - 62.7° 47.7° - - -
4/29 1:50pm 84 7 G 13 62° 11% - - 62.7° 47.7° - - -
4/29 1:40pm 110 8 G 15 61° 11% - - 62° 47.7° - - -
4/29 1:30pm 110 7 G 14 61° 12% - - 62° 47.7° - - -
4/29 1:20pm 78 10 G 16 61° 12% - - 62° 47.7° - - -
4/29 1:10pm 108 8 G 17 61° 12% - - 61.8° 47.7° - - -
4/29 1:00pm 98 8 G 17 61° 12% - - 61.8° 47.7° - - -
4/29 12:50pm 112 9 G 17 60° 12% - - 60.9° 47.7° - - -
4/29 12:40pm 106 10 G 20 60° 13% - - 60.7° 47.7° - - -
4/29 12:30pm 70 9 G 24 60° 13% - - 60.6° 47.7° - - -
4/29 12:20pm 93 10 G 16 59° 13% - - 60.3° 47.7° - - -
4/29 12:10pm 84 11 G 21 59° 12% - - 60° 47.7° - - -
4/29 12:00pm 88 10 G 21 59° 12% - - 60° 47.7° - - -
4/29 11:50am 85 12 G 21 59° 12% - - 59.2° 47.7° - - -
4/29 11:40am 89 13 G 23 58° 13% - - 58.7° 47.7° - - -
4/29 11:30am 80 13 G 20 58° 13% - - 58.5° 47.7° - - -
4/29 11:20am 74 13 G 21 58° 14% - - 58.4° 47.7° - - -
4/29 11:10am 76 12 G 20 58° 14% - - 58.4° 47.7° - - -
4/29 11:00am 72 12 G 20 58° 13% - - 58.4° 47.7° - - -
4/29 10:50am 90 13 G 22 57° 15% - - 10° 57.7° 47.7° - - -
4/29 10:40am 84 15 G 22 57° 14% - - 57.6° 47.7° - - -
4/29 10:30am 78 12 G 22 57° 13% - - 57.6° 47.7° - - -
4/29 10:20am 99 13 G 22 56° 15% - - 56.7° 47.7° - - -
4/29 10:10am 106 14 G 27 56° 14% - - 56.5° 47.7° - - -
4/29 10:00am 99 13 G 22 56° 14% - - 56.5° 47.7° - - -
4/29 9:50am 105 12 G 21 55° 14% - - 56° 47.7° - - -
4/29 9:40am 100 9 G 17 55° 14% - - 56° 47.7° - - -
4/29 9:30am 99 11 G 18 55° 14% - - 55.2° 47.7° - - -
4/29 9:20am 76 10 G 20 55° 14% - - 55.1° 47.7° - - -
4/29 9:10am 64 10 G 19 54° 14% - - 54.6° 47.7° - - -
4/29 9:00am 66 13 G 22 54° 14% - - 54.3° 47.7° - - -
4/29 8:50am 71 10 G 18 54° 15% - - 54.2° 47.7° - - -
4/29 8:40am 65 11 G 20 53° 14% - - 53.7° 47.7° - - -
4/29 8:30am 92 12 G 18 53° 15% - - 53.7° 47.7° - - -
4/29 8:20am 83 13 G 21 53° 14% - - 53.7° 47.7° - - -
4/29 8:10am 70 10 G 20 52° 15% - - 53.7° 47.7° - - -
4/29 8:00am 75 9 G 20 52° 15% - - 53.7° 47.7° - - -
4/29 7:50am 85 12 G 20 52° 15% - - 53.7° 47.7° - - -
4/29 7:40am 90 13 G 23 51° 15% - - 53.7° 47.7° - - -
4/29 7:30am 87 13 G 23 51° 15% - - 53.7° 47.7° - - -
4/29 7:20am 91 12 G 25 50° 16% - - 53.7° 47.7° - - -
4/29 7:10am 94 12 G 19 50° 16% - - 53.7° 47.7° - - -
4/29 7:00am 97 11 G 17 49° 17% - - 53.7° 47.7° - - -
4/29 6:50am 87 10 G 17 49° 16% - - 53.7° 47.7° - - -
4/29 6:40am 92 11 G 21 49° 16% - - 53.7° 47.7° - - -
4/29 6:30am 101 9 G 15 49° 17% - - 53.7° 47.7° - - -
4/29 6:20am 111 10 G 18 49° 17% - - 53.7° 47.7° - - -
4/29 6:10am 116 10 G 15 48° 17% - - 53.7° 47.7° - - -
4/29 6:00am 105 7 G 13 48° 17% - - 53.7° 47.9° - - -
4/29 5:50am 108 8 G 14 48° 17% - - 53.7° 48.1° - - -
4/29 5:40am 99 7 G 13 48° 17% - - 53.7° 48.1° - - -
4/29 5:30am 106 8 G 13 49° 17% - - 53.7° 48.3° - - -
4/29 5:20am 108 8 G 15 49° 17% - - 53.7° 48.3° - - -
4/29 5:10am 105 9 G 15 49° 17% - - 53.7° 48.4° - - -
4/29 5:00am 104 8 G 12 49° 17% - - 53.7° 48.4° - - -
4/29 4:50am 100 8 G 14 49° 17% - - 53.7° 48.4° - - -
4/29 4:40am 94 8 G 14 49° 17% - - 53.7° 48.4° - - -
4/29 4:30am 95 9 G 16 49° 16% - - 53.7° 48.4° - - -
4/29 4:20am 95 8 G 15 49° 17% - - 53.7° 48.4° - - -
4/29 4:10am 92 9 G 15 50° 17% - - 53.7° 48.4° - - -
4/29 4:00am 94 9 G 15 50° 18% - - 53.7° 48.4° - - -
4/29 3:50am 84 7 G 12 49° 19% - - 53.7° 48.4° - - -
4/29 3:40am 92 7 G 13 49° 19% - - 53.7° 48.4° - - -
4/29 3:30am 83 7 G 11 49° 20% - - 53.7° 48.4° - - -
4/29 3:20am 71 7 G 10 49° 20% - - 10° 53.7° 48.4° - - -
4/29 3:10am 64 6 G 10 49° 20% - - 10° 53.7° 48.5° - - -
4/29 3:00am 71 8 G 11 50° 18% - - 53.7° 49.5° - - -
4/29 2:50am 78 7 G 14 50° 18% - - 53.7° 50.2° - - -
4/29 2:40am 80 7 G 14 51° 18% - - 53.7° 50.6° - - -
4/29 2:30am 84 8 G 13 51° 17% - - 53.7° 50.8° - - -
4/29 2:20am 88 8 G 13 51° 17% - - 53.7° 50.8° - - -
4/29 2:10am 87 8 G 16 51° 17% - - 53.7° 50.8° - - -
4/29 2:00am 84 7 G 12 52° 18% - - 53.7° 50.8° - - -
4/29 1:50am 86 7 G 12 52° 19% - - 11° 53.7° 50.8° - - -
4/29 1:40am 86 6 G 12 51° 22% - - 14° 53.7° 50.8° - - -
4/29 1:30am 81 6 G 11 51° 23% - - 15° 53.7° 51° - - -
4/29 1:20am 70 6 G 8 52° 23% - - 15° 53.7° 51.1° - - -
4/29 1:10am 91 7 G 13 52° 22% - - 14° 53.7° 51.8° - - -
4/29 1:00am 84 7 G 11 52° 22% - - 15° 53.7° 51.8° - - -
4/29 12:50am 77 6 G 9 53° 24% - - 17° 53.7° 51.8° - - -
4/29 12:40am 96 9 G 14 53° 26% - - 19° 53.7° 51.8° - - -
4/29 12:30am 96 7 G 12 53° 31% - - 23° 53.5° 51.8° - - -
4/29 12:20am 105 5 G 10 52° 31% - - 23° 53.5° 51.8° - - -
4/29 12:10am 89 5 G 7 53° 31% - - 23° 53.5° 52.4° - - -
4/29 12:00am 77 5 G 9 53° 31% - - 23° 65.6° 46.1° - - -
4/28 11:50pm 82 4 G 7 53° 31% - - 24° 65.6° 46.1° - - -
4/28 11:40pm 100 4 G 7 53° 36% - - 27° 65.6° 46.1° - - -
4/28 11:30pm 105 3 G 8 53° 45% - - 32° 65.6° 46.1° - - -
4/28 11:20pm 105 3 G 5 52° 47% - - 33° 65.6° 46.1° - - -
4/28 11:10pm 129 2 G 4 50° 56% - - 35° 65.6° 46.1° - - -
4/28 11:00pm 90 1 G 3 49° 62% - - 37° 65.6° 46.1° - - -
4/28 10:50pm 112 1 G 1 50° 60% - - 36° 65.6° 46.1° - - -
4/28 10:40pm 176 1 G 3 51° 57% - - 36° 65.6° 46.1° - - -
4/28 10:30pm 232 1 G 1 50° 57% - - 36° 65.6° 46.1° - - -
4/28 10:20pm 221 1 G 3 51° 57% - - 36° 65.6° 46.1° - - -
4/28 10:10pm 237 1 G 4 51° 57% - - 36° 65.6° 46.1° - - -
4/28 10:00pm 201 1 G 2 52° 55% - - 36° 65.6° 46.1° - - -
4/28 9:50pm 28 1 G 5 53° 51% - - 36° 65.6° 46.1° - - -
4/28 9:40pm 129 3 G 6 53° 51% - - 35° 65.6° 46.1° - - -
4/28 9:30pm 127 3 G 4 52° 53% - - 35° 65.6° 46.1° - - -
4/28 9:20pm 173 2 G 5 51° 54% - - 35° 65.6° 46.1° - - -
4/28 9:10pm 246 2 G 4 52° 52% - - 35° 65.6° 46.1° - - -
4/28 9:00pm 230 4 G 6 52° 52% - - 35° 65.6° 46.1° - - -
4/28 8:50pm 243 3 G 6 52° 53% - - 35° 65.6° 46.1° - - -
4/28 8:40pm 250 3 G 6 51° 53% - - 35° 65.6° 46.1° - - -
4/28 8:30pm 249 4 G 7 52° 53% - - 35° 65.6° 46.1° - - -
4/28 8:20pm 240 3 G 6 52° 52% - - 35° 65.6° 46.1° - - -
4/28 8:10pm 251 3 G 6 52° 53% - - 35° 65.6° 46.1° - - -
4/28 8:00pm 261 4 G 6 53° 52% - - 35° 65.6° 46.1° - - -
4/28 7:50pm 248 3 G 8 53° 51% - - 36° 65.6° 46.1° - - -
4/28 7:40pm 251 4 G 7 54° 51% - - 36° 65.6° 46.1° - - -
4/28 7:30pm 257 5 G 8 54° 51% - - 37° 65.6° 46.1° - - -
4/28 7:20pm 261 5 G 8 55° 51% - - 37° 65.6° 46.1° - - -
4/28 7:10pm 262 5 G 9 56° 50% - - 37° 65.6° 46.1° - - -
4/28 7:00pm 261 5 G 11 57° 50% - - 38° 65.6° 46.1° - - -
4/28 6:50pm 264 6 G 10 57° 51% - - 39° 65.6° 46.1° - - -
4/28 6:40pm 267 6 G 10 57° 52% - - 40° 65.6° 46.1° - - -
4/28 6:30pm 272 8 G 13 58° 52% - - 40° 65.6° 46.1° - - -
4/28 6:20pm 268 8 G 12 58° 52% - - 40° 65.6° 46.1° - - -
4/28 6:10pm 270 8 G 12 59° 52% - - 41° 65.6° 46.1° - - -
4/28 6:00pm 261 6 G 11 59° 53% - - 42° 65.6° 46.1° - - -